Change the Weather History Date:

Wednesday, November 27, 2013

  Actual Average (KPAH) Record (KPAH)
Temperature  
Mean Temperature 24 °F 43 °F  
Max Temperature 32 °F 53 °F 78 °F (1990)
Min Temperature 15 °F 34 °F 16 °F (1938)
Degree Days  
Heating Degree Days 42 22  
Month to date heating degree days 442  
Since 1 July heating degree days 709  
Cooling Degree Days 0 0  
Month to date cooling degree days 0  
Year to date cooling degree days 1538  
Moisture  
Dew Point 9 °F    
Average Humidity 54    
Maximum Humidity 86    
Minimum Humidity 34    
Precipitation  
Precipitation 0.00 in 0.16 in 1.80 in (1968)
Month to date precipitation 3.81  
Year to date precipitation 44.00  
Snow  
Snow 0.00 in 0.00 in T in (1992)
Month to date snowfall 0.0  
Since 1 July snowfall 0.1  
Since 1 September snowfall 0.1  
Snow Depth -    
Sea Level Pressure  
Sea Level Pressure 30.26 in    
Wind  
Wind Speed 12 mph (NNW)    
Max Wind Speed 20 mph    
Max Gust Speed 26 mph    
Visibility 10 miles    
Events      
T = Trace of Precipitation, MM = Missing Value Source: NWS Daily Summary

Daily Weather History Graph

Daily Weather History Graph

Search for Another Location

Airport or City:

Trip Planner

Search our weather history database for the weather conditions in past years. The results will help you decide how hot, cold, wet, or windy it might be!

Date:

Astronomy

Nov. 27, 2013 Rise Set
Actual Time 6:43 AM CST 4:38 PM CST
Civil Twilight 6:15 AM CST 5:06 PM CST
Nautical Twilight 5:43 AM CST 5:38 PM CST
Astronomical Twilight 5:12 AM CST 6:09 PM CST
Moon 12:54 AM CST 1:08 PM CST
Length of Visible Light 10h 51m
Length of Day
9h 54m
Waning Crescent, 31% of the Moon is Illuminated
Nov 27
Waning Crescent
Dec 2
New
Dec 9
First Quarter
Dec 17
Full
Dec 25
Last Quarter

Hourly Weather History & Observations

Time (CST) Temp. Windchill Dew Point Humidity Pressure Visibility Wind Dir Wind Speed Gust Speed Precip Events Conditions
12:15 AM 32.0 °F 21.6 °F 17.6 °F 55% 30.09 in 10.0 mi North 15.0 mph 24.2 mph N/A   Overcast
12:35 AM 30.2 °F 17.8 °F 17.6 °F 60% 30.11 in 10.0 mi North 19.6 mph 25.3 mph N/A   Overcast
12:55 AM 28.4 °F 17.0 °F 15.8 °F 59% 30.11 in 10.0 mi North 15.0 mph 23.0 mph N/A   Overcast
1:15 AM 28.4 °F 16.2 °F 15.8 °F 59% 30.12 in 10.0 mi NNW 17.3 mph 25.3 mph N/A   Mostly Cloudy
1:35 AM 26.6 °F 14.7 °F 14.0 °F 59% 30.13 in 10.0 mi NNW 15.0 mph 23.0 mph N/A   Mostly Cloudy
1:55 AM 26.6 °F 14.3 °F 14.0 °F 59% 30.14 in 10.0 mi NNW 16.1 mph 24.2 mph N/A   Mostly Cloudy
2:15 AM 24.8 °F 11.5 °F 12.2 °F 59% 30.15 in 10.0 mi NNW 17.3 mph 23.0 mph N/A   Overcast
2:35 AM 24.8 °F 12.9 °F 10.4 °F 54% 30.15 in 10.0 mi North 13.8 mph 26.5 mph N/A   Mostly Cloudy
2:55 AM 23.0 °F 10.6 °F 10.4 °F 59% 30.16 in 10.0 mi NNW 13.8 mph 21.9 mph N/A   Clear
3:15 AM 23.0 °F 10.6 °F 10.4 °F 59% 30.16 in 10.0 mi North 13.8 mph 18.4 mph N/A   Clear
3:35 AM 23.0 °F 10.1 °F 10.4 °F 59% 30.16 in 10.0 mi NNW 15.0 mph 18.4 mph N/A   Partly Cloudy
3:55 AM 23.0 °F 12.4 °F 10.4 °F 59% 30.17 in 10.0 mi NNW 10.4 mph - N/A   Mostly Cloudy
4:15 AM 23.0 °F 12.4 °F 10.4 °F 59% 30.18 in 10.0 mi NNW 10.4 mph - N/A   Mostly Cloudy
4:35 AM 23.0 °F 13.1 °F 10.4 °F 59% 30.18 in 10.0 mi NNW 9.2 mph - N/A   Partly Cloudy
4:55 AM 21.2 °F 8.9 °F 10.4 °F 63% 30.18 in 10.0 mi NNW 12.7 mph - N/A   Clear
5:15 AM 21.2 °F 8.3 °F 10.4 °F 63% 30.19 in 10.0 mi NNW 13.8 mph - N/A   Clear
5:35 AM 21.2 °F 8.9 °F 8.6 °F 58% 30.20 in 10.0 mi NNW 12.7 mph 21.9 mph N/A   Partly Cloudy
5:55 AM 21.2 °F 8.3 °F 8.6 °F 58% 30.21 in 10.0 mi NNW 13.8 mph - N/A   Partly Cloudy
6:15 AM 21.2 °F 9.5 °F 8.6 °F 58% 30.21 in 10.0 mi NNW 11.5 mph - N/A   Clear
6:35 AM 19.4 °F 7.2 °F 8.6 °F 63% 30.22 in 10.0 mi NNW 11.5 mph 18.4 mph N/A   Clear
6:55 AM 19.4 °F 7.2 °F 8.6 °F 63% 30.23 in 10.0 mi NNW 11.5 mph 18.4 mph N/A   Clear
7:15 AM 19.4 °F 6.0 °F 8.6 °F 63% 30.24 in 10.0 mi North 13.8 mph 19.6 mph N/A   Clear
7:35 AM 21.2 °F 10.1 °F 8.6 °F 58% 30.24 in 10.0 mi NNW 10.4 mph 16.1 mph N/A   Clear
7:55 AM 21.2 °F 6.0 °F 8.6 °F 58% 30.26 in 10.0 mi NNW 19.6 mph 24.2 mph N/A   Clear
8:15 AM 23.0 °F 11.7 °F 8.6 °F 54% 30.26 in 10.0 mi NNW 11.5 mph 25.3 mph N/A   Clear
8:35 AM 23.0 °F 11.1 °F 8.6 °F 54% 30.27 in 10.0 mi NNW 12.7 mph 20.7 mph N/A   Clear
8:55 AM 23.0 °F 9.2 °F 8.6 °F 54% 30.27 in 10.0 mi NW 17.3 mph 23.0 mph N/A   Clear
9:15 AM 23.0 °F 8.7 °F 6.8 °F 50% 30.28 in 10.0 mi North 18.4 mph 21.9 mph N/A   Clear
9:35 AM 23.0 °F 9.2 °F 6.8 °F 50% 30.28 in 10.0 mi NNW 17.3 mph 24.2 mph N/A   Clear
9:55 AM 24.8 °F 11.5 °F 6.8 °F 46% 30.28 in 10.0 mi NW 17.3 mph - N/A   Clear
10:15 AM 24.8 °F 12.4 °F 6.8 °F 46% 30.28 in 10.0 mi NW 15.0 mph - N/A   Clear
10:35 AM 24.8 °F 12.9 °F 6.8 °F 46% 30.28 in 10.0 mi NNW 13.8 mph - N/A   Clear
10:55 AM 26.6 °F 15.7 °F 6.8 °F 43% 30.28 in 10.0 mi NNW 12.7 mph - N/A   Clear
11:15 AM 26.6 °F 13.8 °F 6.8 °F 43% 30.27 in 10.0 mi NNW 17.3 mph 21.9 mph N/A   Clear
11:35 AM 26.6 °F 15.7 °F 6.8 °F 43% 30.27 in 10.0 mi NNW 12.7 mph 19.6 mph N/A   Clear
11:55 AM 28.4 °F 16.6 °F 6.8 °F 40% 30.27 in 10.0 mi NNW 16.1 mph 21.9 mph N/A   Clear
12:15 PM 28.4 °F 16.2 °F 6.8 °F 40% 30.27 in 10.0 mi NW 17.3 mph 24.2 mph N/A   Clear
12:35 PM 28.4 °F 18.5 °F 6.8 °F 40% 30.26 in 10.0 mi NNW 11.5 mph 20.7 mph N/A   Clear
12:55 PM 28.4 °F 16.6 °F 6.8 °F 40% 30.26 in 10.0 mi NNW 16.1 mph 21.9 mph N/A   Clear
1:15 PM 30.2 °F 20.2 °F 6.8 °F 37% 30.26 in 10.0 mi NNW 12.7 mph 19.6 mph N/A   Clear
1:35 PM 30.2 °F 20.2 °F 6.8 °F 37% 30.26 in 10.0 mi NNW 12.7 mph 19.6 mph N/A   Clear
1:55 PM 30.2 °F 19.8 °F 5.0 °F 34% 30.27 in 10.0 mi North 13.8 mph 18.4 mph N/A   Clear
2:15 PM 30.2 °F 19.8 °F 5.0 °F 34% 30.27 in 10.0 mi NNW 13.8 mph 18.4 mph N/A   Clear
2:35 PM 30.2 °F 20.8 °F 6.8 °F 37% 30.27 in 10.0 mi NNW 11.5 mph 19.6 mph N/A   Clear
2:55 PM 30.2 °F 21.3 °F 5.0 °F 34% 30.28 in 10.0 mi NNW 10.4 mph 20.7 mph N/A   Clear
3:15 PM 30.2 °F 19.8 °F 6.8 °F 37% 30.28 in 10.0 mi WNW 13.8 mph 18.4 mph N/A   Clear
3:35 PM 30.2 °F 21.3 °F 5.0 °F 34% 30.28 in 10.0 mi NW 10.4 mph - N/A   Clear
3:55 PM 28.4 °F 19.1 °F 6.8 °F 40% 30.30 in 10.0 mi NW 10.4 mph - N/A   Clear
4:15 PM 28.4 °F 18.5 °F 5.0 °F 37% 30.30 in 10.0 mi NW 11.5 mph - N/A   Clear
4:35 PM 28.4 °F 21.2 °F 6.8 °F 40% 30.31 in 10.0 mi NNW 6.9 mph - N/A   Clear
4:55 PM 26.6 °F 21.2 °F 6.8 °F 43% 30.31 in 10.0 mi NNW 4.6 mph - N/A   Clear
5:15 PM 26.6 °F 20.0 °F 6.8 °F 43% 30.32 in 10.0 mi NNW 5.8 mph - N/A   Clear
5:35 PM 26.6 °F 21.2 °F 6.8 °F 43% 30.32 in 10.0 mi NNW 4.6 mph - N/A   Clear
5:55 PM 26.6 °F 22.6 °F 6.8 °F 43% 30.33 in 10.0 mi NNW 3.5 mph - N/A   Clear
6:15 PM 24.8 °F 20.5 °F 8.6 °F 50% 30.33 in 10.0 mi North 3.5 mph - N/A   Clear
6:35 PM 24.8 °F 20.5 °F 6.8 °F 46% 30.34 in 10.0 mi NNW 3.5 mph - N/A   Clear
6:55 PM 24.8 °F 19.1 °F 6.8 °F 46% 30.34 in 10.0 mi North 4.6 mph - N/A   Clear
7:15 PM 24.8 °F 20.5 °F 8.6 °F 50% 30.34 in 10.0 mi North 3.5 mph - N/A   Clear
7:35 PM 24.8 °F 19.1 °F 8.6 °F 50% 30.35 in 10.0 mi North 4.6 mph - N/A   Clear
7:55 PM 23.0 °F 17.0 °F 6.8 °F 50% 30.35 in 10.0 mi North 4.6 mph - N/A   Clear
8:15 PM 21.2 °F - 12.2 °F 68% 30.35 in 10.0 mi Calm Calm - N/A   Clear
8:35 PM 19.4 °F - 12.2 °F 74% 30.35 in 10.0 mi Calm Calm - N/A   Clear
8:55 PM 19.4 °F - 10.4 °F 68% 30.35 in 10.0 mi Calm Calm - N/A   Clear
9:15 PM 19.4 °F - 8.6 °F 63% 30.36 in 10.0 mi Calm Calm - N/A   Clear
9:35 PM 19.4 °F - 10.4 °F 68% 30.36 in 10.0 mi Calm Calm - N/A   Clear
9:55 PM 17.6 °F - 12.2 °F 79% 30.36 in 10.0 mi Calm Calm - N/A   Clear
10:15 PM 19.4 °F - 10.4 °F 68% 30.36 in 10.0 mi Calm Calm - N/A   Clear
10:35 PM 19.4 °F 14.3 °F 10.4 °F 68% 30.37 in 10.0 mi WSW 3.5 mph - N/A   Clear
10:55 PM 17.6 °F - 10.4 °F 73% 30.37 in 10.0 mi Calm Calm - N/A   Clear
11:15 PM 17.6 °F - 12.2 °F 79% 30.37 in 10.0 mi Calm Calm - N/A   Clear
11:35 PM 15.8 °F - 12.2 °F 86% 30.37 in 10.0 mi Calm Calm - N/A   Clear
11:55 PM 17.6 °F 12.3 °F 14.0 °F 86% 30.36 in 10.0 mi SSE 3.5 mph - N/A   Clear